EW7598 Weather Reports


time (UTC)temp
C
wind
direction
speed
KPH
gust
KPH
rain 1hr
cm
rain 24hr
cm
rain mn
cm
humidity
%
barometer
mb
20260503010042 8 207 0.0 0.0 0.00 0.00 0.00 78 1013.6
20260503004538 8 207 0.0 0.0 0.00 0.00 0.00 77 1013.2
20260503003048 9 207 0.0 0.0 0.00 0.00 0.00 75 1013.4
20260503001551 9 207 0.0 0.0 0.00 0.00 0.00 74 1013.4
20260503000033 10 207 0.0 0.0 0.00 0.00 0.00 67 1013.1
20260502234536 10 207 0.0 0.0 0.00 0.00 0.00 64 1013.0
20260502233032 11 207 0.0 0.0 0.00 0.00 0.00 61 1012.7
20260502231530 11 207 0.0 0.0 0.00 0.00 0.00 55 1012.4
20260502230034 12 207 0.0 0.0 0.00 0.00 0.00 53 1012.4
20260502224529 12 207 0.0 1.6 0.00 0.00 0.00 52 1012.2
20260502223032 13 195 0.0 3.2 0.00 0.00 0.00 50 1012.2
20260502221528 13 195 0.0 3.2 0.00 0.00 0.00 50 1011.8
20260502220034 13 272 0.0 1.6 0.00 0.00 0.00 48 1011.7
20260502214527 13 187 0.0 3.2 0.00 0.00 0.00 49 1011.8
20260502213027 13 184 0.0 1.6 0.00 0.00 0.00 49 1011.7
20260502211526 13 205 0.0 4.8 0.00 0.00 0.00 46 1011.6
20260502210025 13 146 0.0 4.8 0.00 0.00 0.00 49 1011.7
20260502204523 13 332 1.6 6.4 0.00 0.00 0.00 50 1011.8
20260502203025 13 215 0.0 3.2 0.00 0.00 0.00 50 1011.8
20260502201525 13 355 0.0 4.8 0.00 0.00 0.00 50 1011.9
20260502200017 12 11 0.0 8.0 0.00 0.00 0.00 51 1012.2
20260502194515 12 222 0.0 6.4 0.00 0.00 0.00 51 1012.5
20260502193015 12 177 0.0 3.2 0.00 0.00 0.00 53 1012.7
20260502191513 12 336 0.0 6.4 0.00 0.00 0.00 54 1012.8
20260502190013 12 333 0.0 6.4 0.00 0.00 0.00 53 1012.8
20260502184512 12 11 1.6 6.4 0.00 0.00 0.00 53 1012.8
20260502183014 12 44 0.0 9.7 0.00 0.00 0.00 52 1012.6
20260502181511 12 8 1.6 12.9 0.00 0.00 0.00 51 1013.0
20260502163100 12 349 6.4 17.7 0.00 0.00 0.00 50 1013.5
20260502161558 11 275 0.0 12.9 0.00 0.00 0.00 54 1014.1
20260502151603 11 252 0.0 11.3 0.00 0.00 0.00 57 1014.5
20260502150104 11 11 1.6 8.0 0.00 0.00 0.00 59 1014.1
20260502123053 11 129 1.6 6.4 0.00 0.00 0.00 79 1013.2
20260502121535 11 31 0.0 3.2 0.00 0.00 0.00 79 1013.4
20260502114536 11 333 0.0 3.2 0.00 0.00 0.00 80 1013.1
20260502113041 11 347 0.0 3.2 0.00 0.00 0.00 80 1013.0
20260502111534 11 311 0.0 1.6 0.00 0.00 0.00 80 1013.0
20260502110033 11 25 0.0 6.4 0.00 0.00 0.00 79 1012.8
20260502104538 11 316 0.0 4.8 0.00 0.00 0.00 80 1012.7
20260502103030 10 345 0.0 6.4 0.00 0.00 0.00 83 1012.8
20260502101529 10 20 0.0 3.2 0.00 0.00 0.00 84 1013.0
20260502091528 10 356 0.0 0.0 0.00 0.00 0.00 82 1013.4
20260502071515 10 356 0.0 0.0 0.00 0.00 0.00 81 1012.2
20260502070015 10 356 0.0 0.0 0.00 0.00 0.00 81 1012.3
20260502064514 10 356 0.0 1.6 0.00 0.00 0.00 81 1012.4
20260502063013 9 356 0.0 6.4 0.00 0.00 0.00 81 1012.6
20260502061513 9 165 0.0 0.0 0.00 0.00 0.00 82 1012.4
20260502060011 10 165 0.0 0.0 0.00 0.00 0.00 82 1012.3
20260502054511 10 165 0.0 0.0 0.00 0.00 0.00 82 1012.4
20260502053010 10 165 0.0 0.0 0.00 0.00 0.00 82 1012.3
20260502051520 10 165 0.0 0.0 0.00 0.00 0.00 82 1012.6
20260502050006 10 165 0.0 0.0 0.00 0.00 0.00 83 1012.6
20260502044506 10 165 0.0 0.0 0.00 0.00 0.00 83 1012.8
20260502043005 10 165 0.0 0.0 0.00 0.00 0.00 83 1012.7
20260502041502 10 165 0.0 0.0 0.00 0.00 0.00 83 1012.8
20260502040100 10 165 0.0 0.0 0.00 0.00 0.00 84 1012.9
20260502034559 10 165 0.0 0.0 0.00 0.00 0.00 84 1012.9
20260502033105 10 165 0.0 0.0 0.00 0.00 0.00 84 1013.0
20260502031602 10 165 0.0 0.0 0.00 0.00 0.00 83 1013.2
20260502030101 10 165 0.0 0.0 0.00 0.00 0.00 83 1013.1
20260502024557 11 165 0.0 0.0 0.00 0.00 0.00 83 1013.1
20260502023110 11 165 0.0 0.0 0.00 0.00 0.00 83 1013.1
20260502021558 11 165 0.0 0.0 0.00 0.00 0.00 83 1013.0
20260502020056 11 165 0.0 0.0 0.00 0.00 0.00 83 1013.2
20260502014554 11 165 0.0 0.0 0.00 0.00 0.00 82 1013.2
20260502013054 11 165 0.0 0.0 0.00 0.00 0.00 81 1013.1
20260502011558 12 165 0.0 0.0 0.00 0.00 0.00 81 1013.1